TimeCST,TemperatureF,Dew PointF,Humidity,Sea Level PressureIn,VisibilityMPH,Wind Direction,Wind SpeedMPH,Gust SpeedMPH,PrecipitationIn,Events,Conditions,WindDirDegrees,DateUTC
12:15 AM,7.3,1.8,78,30.70,10.0,Calm,Calm,-,N/A,,Clear,0,2013-11-24 06:15:00
12:35 AM,7.3,2.1,79,30.69,10.0,South,3.5,-,N/A,,Clear,180,2013-11-24 06:35:00
12:55 AM,6.6,1.2,79,30.68,10.0,Calm,Calm,-,N/A,,Clear,0,2013-11-24 06:55:00
1:15 AM,6.3,1.6,81,30.67,10.0,SSW,3.5,-,N/A,,Clear,210,2013-11-24 07:15:00
1:35 AM,7.0,2.1,80,30.66,10.0,South,3.5,-,N/A,,Clear,170,2013-11-24 07:35:00
1:55 AM,10.2,3.4,74,30.65,10.0,South,4.6,-,N/A,,Clear,170,2013-11-24 07:55:00
2:15 AM,9.9,2.5,72,30.64,10.0,SSW,3.5,-,N/A,,Clear,200,2013-11-24 08:15:00
2:35 AM,7.7,2.7,80,30.63,10.0,Calm,Calm,-,N/A,,Clear,0,2013-11-24 08:35:00
2:55 AM,9.7,3.7,77,30.65,10.0,South,3.5,-,N/A,,Clear,170,2013-11-24 08:55:00
3:15 AM,10.6,4.1,75,30.65,10.0,SSE,5.8,-,N/A,,Clear,160,2013-11-24 09:15:00
3:35 AM,10.8,4.1,75,30.63,10.0,South,6.9,-,N/A,,Clear,170,2013-11-24 09:35:00
3:55 AM,11.1,4.1,73,30.62,10.0,South,6.9,-,N/A,,Clear,170,2013-11-24 09:55:00
4:15 AM,11.8,4.5,72,30.61,10.0,South,9.2,-,N/A,,Clear,180,2013-11-24 10:15:00
4:35 AM,11.8,4.5,72,30.60,10.0,South,6.9,-,N/A,,Clear,180,2013-11-24 10:35:00
4:55 AM,11.8,4.5,72,30.59,10.0,South,9.2,-,N/A,,Clear,180,2013-11-24 10:55:00
5:15 AM,11.8,4.8,73,30.59,10.0,South,8.1,-,N/A,,Clear,190,2013-11-24 11:15:00
5:35 AM,12.2,5.0,73,30.58,10.0,SSW,9.2,-,N/A,,Clear,200,2013-11-24 11:35:00
5:55 AM,12.9,5.5,72,30.57,10.0,SSW,9.2,-,N/A,,Clear,200,2013-11-24 11:55:00
6:15 AM,13.1,5.5,72,30.57,10.0,SSW,8.1,-,N/A,,Clear,200,2013-11-24 12:15:00
6:35 AM,13.5,5.5,71,30.57,10.0,SSW,10.4,-,N/A,,Clear,200,2013-11-24 12:35:00
6:55 AM,13.3,5.4,71,30.56,10.0,South,11.5,-,N/A,,Clear,190,2013-11-24 12:55:00
7:15 AM,13.1,5.5,72,30.55,10.0,South,10.4,-,N/A,,Clear,190,2013-11-24 13:15:00
7:35 AM,13.5,5.7,71,30.55,10.0,SSW,10.4,-,N/A,,Clear,200,2013-11-24 13:35:00
7:55 AM,13.8,5.9,71,30.55,10.0,South,8.1,-,N/A,,Clear,190,2013-11-24 13:55:00
8:15 AM,14.9,6.4,69,30.54,10.0,South,10.4,-,N/A,,Clear,190,2013-11-24 14:15:00
8:35 AM,16.0,6.4,66,30.53,10.0,South,12.7,-,N/A,,Clear,190,2013-11-24 14:35:00
8:55 AM,17.4,7.3,65,30.53,10.0,SSW,17.3,-,N/A,,Clear,200,2013-11-24 14:55:00
9:15 AM,18.5,7.0,61,30.52,10.0,SSW,17.3,20.7,N/A,,Clear,200,2013-11-24 15:15:00
9:35 AM,20.1,7.0,57,30.51,10.0,SSW,13.8,23.0,N/A,,Clear,200,2013-11-24 15:35:00
9:55 AM,21.2,6.4,53,30.50,10.0,SSW,18.4,26.5,N/A,,Clear,200,2013-11-24 15:55:00
10:15 AM,22.6,6.3,50,30.48,10.0,South,15.0,-,N/A,,Clear,190,2013-11-24 16:15:00
10:35 AM,24.4,7.7,49,30.47,10.0,SSW,16.1,24.2,N/A,,Clear,210,2013-11-24 16:35:00
10:55 AM,26.2,7.9,46,30.46,10.0,SSW,18.4,25.3,N/A,,Clear,200,2013-11-24 16:55:00
11:15 AM,27.5,7.9,44,30.44,10.0,SSW,23.0,26.5,N/A,,Clear,200,2013-11-24 17:15:00
11:35 AM,29.1,8.8,43,30.42,10.0,SSW,16.1,24.2,N/A,,Clear,210,2013-11-24 17:35:00
11:55 AM,29.8,8.8,41,30.39,10.0,SSW,18.4,27.6,N/A,,Clear,210,2013-11-24 17:55:00
12:15 PM,31.3,10.0,41,30.38,10.0,SSW,20.7,24.2,N/A,,Clear,200,2013-11-24 18:15:00
12:35 PM,32.0,10.2,40,30.37,10.0,SSW,20.7,25.3,N/A,,Clear,200,2013-11-24 18:35:00
12:55 PM,32.9,11.1,40,30.34,10.0,SSW,18.4,26.5,N/A,,Clear,200,2013-11-24 18:55:00
1:15 PM,33.3,10.6,39,30.33,10.0,SSW,19.6,25.3,N/A,,Clear,200,2013-11-24 19:15:00
1:35 PM,34.3,12.4,40,30.31,10.0,SSW,16.1,21.9,N/A,,Clear,200,2013-11-24 19:35:00
1:55 PM,33.8,11.8,40,30.30,10.0,South,20.7,25.3,N/A,,Clear,190,2013-11-24 19:55:00
2:15 PM,35.1,12.0,39,30.29,10.0,SSW,18.4,25.3,N/A,,Clear,200,2013-11-24 20:15:00
2:35 PM,35.2,11.3,37,30.28,10.0,SW,21.9,29.9,N/A,,Clear,220,2013-11-24 20:35:00
2:55 PM,35.6,11.7,37,30.27,10.0,SSW,25.3,28.8,N/A,,Clear,210,2013-11-24 20:55:00
3:15 PM,35.2,12.0,38,30.26,10.0,SW,20.7,25.3,N/A,,Clear,220,2013-11-24 21:15:00
3:35 PM,34.9,12.4,40,30.25,10.0,SSW,18.4,24.2,N/A,,Clear,210,2013-11-24 21:35:00
3:55 PM,34.3,12.7,41,30.25,10.0,SSW,18.4,24.2,N/A,,Clear,200,2013-11-24 21:55:00
4:15 PM,33.6,12.6,42,30.24,10.0,SSW,18.4,24.2,N/A,,Clear,200,2013-11-24 22:15:00
4:35 PM,32.7,12.7,44,30.24,10.0,SSW,16.1,26.5,N/A,,Clear,200,2013-11-24 22:35:00
4:55 PM,31.5,13.6,48,30.23,10.0,South,10.4,-,N/A,,Clear,190,2013-11-24 22:55:00
5:15 PM,30.4,13.6,50,30.23,10.0,South,12.7,17.3,N/A,,Clear,190,2013-11-24 23:15:00
5:35 PM,30.0,13.6,51,30.22,10.0,South,15.0,20.7,N/A,,Clear,180,2013-11-24 23:35:00
5:55 PM,29.1,14.0,53,30.20,10.0,South,16.1,-,N/A,,Clear,180,2013-11-24 23:55:00
6:15 PM,28.0,14.7,57,30.19,10.0,South,16.1,21.9,N/A,,Clear,180,2013-11-25 00:15:00
6:35 PM,27.7,14.9,59,30.19,10.0,South,12.7,-,N/A,,Clear,180,2013-11-25 00:35:00
6:55 PM,28.0,14.2,56,30.18,10.0,South,17.3,21.9,N/A,,Clear,190,2013-11-25 00:55:00
7:15 PM,27.5,13.8,56,30.18,10.0,South,17.3,21.9,N/A,,Clear,190,2013-11-25 01:15:00
7:35 PM,26.8,13.8,58,30.17,10.0,South,17.3,21.9,N/A,,Clear,190,2013-11-25 01:35:00
7:55 PM,26.6,13.1,57,30.16,10.0,South,19.6,26.5,N/A,,Clear,190,2013-11-25 01:55:00
8:15 PM,26.4,13.1,57,30.14,10.0,SSW,18.4,27.6,N/A,,Clear,200,2013-11-25 02:15:00
8:35 PM,26.6,12.9,56,30.14,10.0,SSW,18.4,26.5,N/A,,Clear,200,2013-11-25 02:35:00
8:55 PM,26.4,13.1,57,30.15,10.0,SSW,17.3,21.9,N/A,,Clear,200,2013-11-25 02:55:00
9:15 PM,26.1,13.3,59,30.15,10.0,SSW,15.0,19.6,N/A,,Clear,200,2013-11-25 03:15:00
9:35 PM,26.2,13.6,59,30.14,10.0,SSW,15.0,-,N/A,,Clear,200,2013-11-25 03:35:00
9:55 PM,26.4,13.6,59,30.14,10.0,SSW,11.5,-,N/A,,Clear,200,2013-11-25 03:55:00
10:15 PM,26.6,13.8,59,30.14,10.0,SSW,6.9,-,N/A,,Clear,210,2013-11-25 04:15:00
10:35 PM,27.5,14.5,58,30.13,10.0,SSW,11.5,-,N/A,,Clear,200,2013-11-25 04:35:00
10:55 PM,28.9,14.5,55,30.11,10.0,SSW,17.3,-,N/A,,Clear,200,2013-11-25 04:55:00
11:15 PM,29.1,14.7,55,30.11,10.0,SSW,17.3,23.0,N/A,,Clear,200,2013-11-25 05:15:00
11:35 PM,29.3,14.7,55,30.11,10.0,SSW,15.0,19.6,N/A,,Scattered Clouds,210,2013-11-25 05:35:00
11:55 PM,29.8,14.9,54,30.10,10.0,SSW,17.3,20.7,N/A,,Mostly Cloudy,210,2013-11-25 05:55:00